OK,85,31,688,85,2014-10-01T01:40:00,0,28072015,190259
OK,85,31,688,85,2014-10-01T01:45:00,0,28072458,190259
OK,85,31,688,85,2014-10-01T01:50:00,0,28072907,190259
OK,85,31,688,85,2014-10-01T01:55:00,0,28073354,190259
OK,85,31,688,85,2014-10-01T02:05:00,0,28074120,190259
OK,85,31,688,85,2014-10-01T02:10:00,0,28074569,190259
OK,85,31,688,85,2014-10-01T02:15:00,0,28075009,190259
OK,85,31,688,85,2014-10-01T02:20:00,0,28075458,190259
OK,85,31,688,85,2014-10-01T02:25:00,0,28075907,190259
OK,85,31,688,85,2014-10-01T02:30:00,0,28076290,190259
OK,85,31,688,85,2014-10-01T02:35:00,0,28076739,190259
OK,85,31,688,85,2014-10-01T02:40:00,0,28077188,190259
OK,85,31,688,85,2014-10-01T02:45:00,0,28077637,190259
OK,85,31,688,85,2014-10-01T02:50:00,0,28078040,190259
OK,85,31,688,85,2014-10-01T02:55:00,0,28078489,190259
OK,85,31,688,85,2014-10-01T03:00:00,0,28078934,190259
OK,85,31,688,85,2014-10-01T03:05:00,0,28079382,190259
OK,85,31,688,85,2014-10-01T03:10:00,0,28079825,190259
OK,85,31,688,85,2014-10-01T03:15:00,0,28080274,190259
OK,85,31,688,85,2014-10-01T03:20:00,0,28080608,190259
OK,91,29,688,91,2014-10-01T03:25:00,1,28081057,190259
OK,91,29,688,91,2014-10-01T03:30:00,1,28081506,190259
OK,91,29,688,91,2014-10-01T03:35:00,0,28081953,190259
OK,91,29,688,91,2014-10-01T03:40:00,0,28082402,190259
OK,91,29,688,91,2014-10-01T03:45:00,0,28082835,190259
OK,91,29,688,91,2014-10-01T03:50:00,0,28083267,190259
OK,65,41,688,65,2014-10-01T03:55:00,1,28083716,190259
OK,40,67,688,40,2014-10-01T04:00:00,1,28084165,190259
OK,56,47,688,56,2014-10-01T04:05:00,1,28084606,190259
OK,57,47,688,57,2014-10-01T04:10:00,2,28085031,190259
OK,57,47,688,57,2014-10-01T04:15:00,2,28085480,190259
OK,53,50,688,53,2014-10-01T04:20:00,1,28085925,190259
OK,53,50,688,53,2014-10-01T04:25:00,3,28086374,190259
OK,69,38,688,69,2014-10-01T04:30:00,4,28086816,190259
OK,81,33,688,81,2014-10-01T04:35:00,3,28087265,190259
OK,65,41,688,65,2014-10-01T04:40:00,0,28087710,190259
OK,82,32,688,82,2014-10-01T04:45:00,1,28088159,190259
OK,82,32,688,82,2014-10-01T04:50:00,3,28088583,190259
OK,85,31,688,85,2014-10-01T04:55:00,4,28089032,190259
OK,86,31,688,86,2014-10-01T05:00:00,7,28089462,190259
OK,98,27,688,98,2014-10-01T05:05:00,5,28089911,190259
OK,98,27,688,98,2014-10-01T05:10:00,1,28090360,190259
OK,134,20,688,134,2014-10-01T05:15:00,3,28090704,190259
OK,134,20,688,134,2014-10-01T05:20:00,4,28091153,190259
OK,186,14,688,186,2014-10-01T05:25:00,2,28091602,190259
OK,216,12,688,216,2014-10-01T05:30:00,3,28092019,190259
OK,246,10,688,246,2014-10-01T05:35:00,8,28092468,190259
OK,225,11,688,225,2014-10-01T05:40:00,12,28092912,190259
OK,219,12,688,219,2014-10-01T05:45:00,9,28093353,190259
OK,387,6,688,387,2014-10-01T05:50:00,4,28093784,190259
OK,610,4,688,610,2014-10-01T05:55:00,2,28094233,190259
OK,345,7,688,345,2014-10-01T06:00:00,6,28094644,190259
OK,455,5,688,455,2014-10-01T06:05:00,11,28095089,190259
OK,429,6,688,429,2014-10-01T06:10:00,9,28095536,190259
OK,387,6,688,387,2014-10-01T06:15:00,5,28095985,190259
OK,327,8,688,327,2014-10-01T06:20:00,5,28096398,190259
OK,229,11,688,229,2014-10-01T06:25:00,5,28096847,190259
OK,187,14,688,187,2014-10-01T06:30:00,7,28097281,190259
OK,226,11,688,226,2014-10-01T06:35:00,10,28097730,190259
OK,236,11,688,236,2014-10-01T06:40:00,9,28098179,190259
OK,256,10,688,256,2014-10-01T06:45:00,7,28098616,190259
OK,261,10,688,261,2014-10-01T06:50:00,10,28099060,190259
OK,238,11,688,238,2014-10-01T06:55:00,11,28099508,190259
OK,182,14,688,182,2014-10-01T07:00:00,10,28099851,190259
OK,76,35,688,76,2014-10-01T07:10:00,4,28100607,190259
OK,53,50,688,53,2014-10-01T07:15:00,2,28101056,190259
OK,80,33,688,80,2014-10-01T07:20:00,5,28101427,190259
OK,78,34,688,78,2014-10-01T07:25:00,9,28101876,190259
OK,65,41,688,65,2014-10-01T07:30:00,6,28102312,190259
OK,81,33,688,81,2014-10-01T07:35:00,5,28102761,190259
OK,128,20,688,128,2014-10-01T07:40:00,10,28103188,190259
OK,150,17,688,150,2014-10-01T07:45:00,13,28103635,190259
OK,164,16,688,164,2014-10-01T07:50:00,16,28104080,190259
OK,180,14,688,180,2014-10-01T07:55:00,15,28104525,190259
OK,163,16,688,163,2014-10-01T08:00:00,5,28104966,190259
OK,153,17,688,153,2014-10-01T08:05:00,3,28105411,190259
OK,129,20,688,129,2014-10-01T08:10:00,2,28105851,190259
OK,113,23,688,113,2014-10-01T08:15:00,5,28106300,190259
OK,109,24,688,109,2014-10-01T08:20:00,7,28106737,190259
OK,93,28,688,93,2014-10-01T08:25:00,5,28107143,190259
OK,88,30,688,88,2014-10-01T08:30:00,4,28107575,190259
OK,74,36,688,74,2014-10-01T08:35:00,4,28108024,190259
OK,92,29,688,92,2014-10-01T08:40:00,5,28108463,190259
OK,109,24,688,109,2014-10-01T08:45:00,4,28108912,190259
OK,125,21,688,125,2014-10-01T08:50:00,3,28109340,190259
OK,80,33,688,80,2014-10-01T08:55:00,5,28109789,190259
OK,90,29,688,90,2014-10-01T09:00:00,4,28110132,190259
OK,88,30,688,88,2014-10-01T09:05:00,2,28110581,190259
OK,87,30,688,87,2014-10-01T09:10:00,4,28111004,190259
OK,116,23,688,116,2014-10-01T09:15:00,5,28111453,190259
OK,110,24,688,110,2014-10-01T09:20:00,6,28111882,190259
OK,60,44,688,60,2014-10-01T09:25:00,2,28112331,190259
OK,54,49,688,54,2014-10-01T09:30:00,0,28112672,190259
OK,101,26,688,101,2014-10-01T09:35:00,2,28113121,190259
OK,88,30,688,88,2014-10-01T09:40:00,3,28113545,190259
OK,79,33,688,79,2014-10-01T09:45:00,2,28113994,190259
OK,78,34,688,78,2014-10-01T09:50:00,2,28114426,190259
OK,78,34,688,78,2014-10-01T09:55:00,2,28114874,190259
OK,85,31,688,85,2014-10-01T10:00:00,3,28115229,190259
OK,85,31,688,85,2014-10-01T10:05:00,5,28115678,190259
OK,90,29,688,90,2014-10-01T10:10:00,2,28116090,190259
OK,67,40,688,67,2014-10-01T10:15:00,1,28116539,190259
OK,81,33,688,81,2014-10-01T10:20:00,2,28116947,190259
OK,78,34,688,78,2014-10-01T10:25:00,5,28117396,190259
OK,80,33,688,80,2014-10-01T10:30:00,4,28117821,190259
OK,74,36,688,74,2014-10-01T10:35:00,4,28118270,190259
OK,64,41,688,64,2014-10-01T10:40:00,3,28118715,190259
OK,70,38,688,70,2014-10-01T10:45:00,4,28119162,190259
OK,93,28,688,93,2014-10-01T10:50:00,7,28119606,190259
OK,105,25,688,105,2014-10-01T10:55:00,4,28120054,190259
OK,107,25,688,107,2014-10-01T11:00:00,2,28120502,190259
OK,117,22,688,117,2014-10-01T11:05:00,1,28120951,190259
OK,95,28,688,95,2014-10-01T11:10:00,1,28121334,190259
OK,107,25,688,107,2014-10-01T11:15:00,2,28121783,190259
OK,107,25,688,107,2014-10-01T11:20:00,2,28122221,190259
OK,101,26,688,101,2014-10-01T11:25:00,2,28122670,190259
OK,95,28,688,95,2014-10-01T11:30:00,4,28123111,190259
OK,84,31,688,84,2014-10-01T11:35:00,4,28123560,190259
OK,70,38,688,70,2014-10-01T11:40:00,1,28123992,190259
OK,70,38,688,70,2014-10-01T11:45:00,0,28124441,190259
OK,87,30,688,87,2014-10-01T11:50:00,1,28124843,190259
OK,79,33,688,79,2014-10-01T11:55:00,3,28125292,190259
OK,72,37,688,72,2014-10-01T12:00:00,5,28125721,190259
OK,72,37,688,72,2014-10-01T12:05:00,1,28126170,190259
OK,72,37,688,72,2014-10-01T12:10:00,0,28126522,190259
OK,102,26,688,102,2014-10-01T12:15:00,1,28126971,190259
OK,102,26,688,102,2014-10-01T12:20:00,1,28127420,190259
OK,102,26,688,102,2014-10-01T12:25:00,0,28127869,190259
OK,139,19,688,139,2014-10-01T12:30:00,2,28128297,190259
OK,107,25,688,107,2014-10-01T12:35:00,2,28128746,190259
OK,112,23,688,112,2014-10-01T12:40:00,1,28129181,190259
OK,112,23,688,112,2014-10-01T12:45:00,0,28129630,190259
OK,91,29,688,91,2014-10-01T12:50:00,1,28130064,190259
OK,88,30,688,88,2014-10-01T12:55:00,4,28130513,190259
OK,86,31,688,86,2014-10-01T13:00:00,3,28130941,190259
OK,91,29,688,91,2014-10-01T13:05:00,1,28131390,190259
OK,95,28,688,95,2014-10-01T13:10:00,2,28131827,190259
OK,100,26,688,100,2014-10-01T13:15:00,1,28132276,190259
OK,164,16,688,164,2014-10-01T13:20:00,1,28132714,190259
OK,140,19,688,140,2014-10-01T13:25:00,4,28133161,190259
OK,122,22,688,122,2014-10-01T13:30:00,0,28133599,190259
OK,232,11,688,232,2014-10-01T13:35:00,3,28134048,190259
OK,232,11,688,232,2014-10-01T13:40:00,3,28134487,190259
OK,225,11,688,225,2014-10-01T13:45:00,2,28134936,190259
OK,229,11,688,229,2014-10-01T13:50:00,4,28135355,190259
OK,187,14,688,187,2014-10-01T13:55:00,2,28135804,190259
OK,261,10,688,261,2014-10-01T14:00:00,8,28136241,190259
OK,261,10,688,261,2014-10-01T14:05:00,8,28136690,190259
OK,204,13,688,204,2014-10-01T14:10:00,4,28137130,190259
OK,207,12,688,207,2014-10-01T14:15:00,7,28137579,190259
OK,295,9,688,295,2014-10-01T14:20:00,5,28138013,190259
OK,332,8,688,332,2014-10-01T14:25:00,5,28138462,190259
OK,216,12,688,216,2014-10-01T14:30:00,8,28138890,190259
OK,204,13,688,204,2014-10-01T14:35:00,6,28139339,190259
OK,265,10,688,265,2014-10-01T14:40:00,6,28139750,190259
OK,253,10,688,253,2014-10-01T14:45:00,7,28140199,190259
OK,264,10,688,264,2014-10-01T14:50:00,7,28140641,190259
OK,270,9,688,270,2014-10-01T14:55:00,3,28141089,190259
OK,250,10,688,250,2014-10-01T15:00:00,3,28141516,190259
OK,200,13,688,200,2014-10-01T15:05:00,2,28141965,190259
OK,214,12,688,214,2014-10-01T15:10:00,5,28142393,190259
OK,214,12,688,214,2014-10-01T15:15:00,5,28142842,190259
OK,283,9,688,283,2014-10-01T15:20:00,6,28143269,190259
OK,237,11,688,237,2014-10-01T15:25:00,10,28143718,190259
OK,183,14,688,183,2014-10-01T15:30:00,7,28144166,190259
OK,157,17,688,157,2014-10-01T15:35:00,5,28144615,190259
OK,81,33,688,81,2014-10-01T15:40:00,6,28145036,190259
OK,84,31,688,84,2014-10-01T15:45:00,10,28145450,190259
OK,91,29,688,91,2014-10-01T15:50:00,5,28145899,190259
OK,66,40,688,66,2014-10-01T15:55:00,2,28146348,190259
OK,66,40,688,66,2014-10-01T16:00:00,2,28146797,190259
OK,66,40,688,66,2014-10-01T16:05:00,0,28147205,190259
OK,66,40,688,66,2014-10-01T16:10:00,0,28147649,190259
OK,106,25,688,106,2014-10-01T16:15:00,3,28148098,190259
OK,106,25,688,106,2014-10-01T16:20:00,3,28148499,190259
OK,106,25,688,106,2014-10-01T16:25:00,0,28148948,190259
OK,97,27,688,97,2014-10-01T16:30:00,5,28149387,190259
OK,84,31,688,84,2014-10-01T16:35:00,4,28149836,190259
OK,71,37,688,71,2014-10-01T16:40:00,1,28150262,190259
OK,122,22,688,122,2014-10-01T16:45:00,1,28150711,190259
OK,109,24,688,109,2014-10-01T16:50:00,2,28151129,190259
OK,85,31,688,85,2014-10-01T16:55:00,3,28151578,190259
OK,119,22,688,119,2014-10-01T17:05:00,1,28152027,190259
OK,52,51,688,52,2014-10-01T17:10:00,2,28152476,190259
OK,54,49,688,54,2014-10-01T17:15:00,4,28152922,190259
OK,70,38,688,70,2014-10-01T17:20:00,2,28153369,190259
OK,82,32,688,82,2014-10-01T17:25:00,2,28153818,190259
OK,75,35,688,75,2014-10-01T17:30:00,4,28154228,190259
OK,69,38,688,69,2014-10-01T17:35:00,1,28154677,190259
OK,69,38,688,69,2014-10-01T17:40:00,1,28155119,190259
OK,62,43,688,62,2014-10-01T17:45:00,1,28155567,190259
OK,62,43,688,62,2014-10-01T17:50:00,0,28155985,190259
OK,100,26,688,100,2014-10-01T17:55:00,3,28156434,190259
OK,84,31,688,84,2014-10-01T18:00:00,4,28156882,190259
OK,62,43,688,62,2014-10-01T18:05:00,0,28157321,190259
OK,73,36,688,73,2014-10-01T18:10:00,2,28157751,190259
OK,49,54,688,49,2014-10-01T18:15:00,1,28158199,190259
OK,60,44,688,60,2014-10-01T18:20:00,1,28158643,190259
OK,60,44,688,60,2014-10-01T18:25:00,3,28159088,190259
OK,53,50,688,53,2014-10-01T18:35:00,0,28159870,190259
OK,54,49,688,54,2014-10-01T18:40:00,2,28160319,190259
OK,54,49,688,54,2014-10-01T18:45:00,2,28160768,190259
OK,42,63,688,42,2014-10-01T18:50:00,0,28161206,190259
OK,62,43,688,62,2014-10-01T18:55:00,1,28161655,190259
OK,62,43,688,62,2014-10-01T19:00:00,1,28162072,190259
OK,62,43,688,62,2014-10-01T19:05:00,0,28162521,190259
OK,67,40,688,67,2014-10-01T19:10:00,1,28162915,190259
OK,76,35,688,76,2014-10-01T19:15:00,2,28163354,190259
OK,85,31,688,85,2014-10-01T19:20:00,1,28163802,190259
OK,85,31,688,85,2014-10-01T19:25:00,0,28164251,190259
OK,60,44,688,60,2014-10-01T19:30:00,1,28164682,190259
OK,62,43,688,62,2014-10-01T19:35:00,2,28165131,190259
OK,60,44,688,60,2014-10-01T19:40:00,0,28165556,190259
OK,64,41,688,64,2014-10-01T19:45:00,0,28166004,190259
OK,104,25,688,104,2014-10-01T19:55:00,1,28166807,190259
OK,57,47,688,57,2014-10-01T20:00:00,1,28167256,190259
OK,85,31,688,85,2014-10-01T20:05:00,3,28167685,190259
OK,84,31,688,84,2014-10-01T20:10:00,7,28168118,190259
OK,51,52,688,51,2014-10-01T20:15:00,3,28168567,190259
OK,51,52,688,51,2014-10-01T20:20:00,0,28169012,190259
OK,51,52,688,51,2014-10-01T20:25:00,0,28169461,190259
OK,51,52,688,51,2014-10-01T20:30:00,0,28169909,190259
OK,51,52,688,51,2014-10-01T20:35:00,0,28170335,190259
OK,51,52,688,51,2014-10-01T20:40:00,0,28170780,190259
OK,101,26,688,101,2014-10-01T20:45:00,1,28171228,190259
OK,101,26,688,101,2014-10-01T20:50:00,1,28171665,190259
OK,101,26,688,101,2014-10-01T20:55:00,0,28172111,190259
OK,47,57,688,47,2014-10-01T21:00:00,1,28172559,190259
OK,47,57,688,47,2014-10-01T21:05:00,1,28173005,190259
OK,47,57,688,47,2014-10-01T21:10:00,0,28173451,190259
OK,47,57,688,47,2014-10-01T21:15:00,0,28173900,190259
OK,47,57,688,47,2014-10-01T21:20:00,0,28174341,190259
OK,47,57,688,47,2014-10-01T21:25:00,0,28174790,190259
OK,91,29,688,91,2014-10-01T21:35:00,1,28175612,190259
OK,72,37,688,72,2014-10-01T21:40:00,2,28176061,190259
OK,54,49,688,54,2014-10-01T21:45:00,0,28176510,190259
OK,54,49,688,54,2014-10-01T21:50:00,0,28176959,190259
OK,54,49,688,54,2014-10-01T21:55:00,0,28177315,190259
OK,54,49,688,54,2014-10-01T22:00:00,0,28177755,190259
OK,54,49,688,54,2014-10-01T22:05:00,0,28178201,190259
OK,54,49,688,54,2014-10-01T22:10:00,0,28178650,190259
OK,65,41,688,65,2014-10-01T22:15:00,1,28179097,190259
OK,65,41,688,65,2014-10-01T22:20:00,1,28179531,190259
OK,65,41,688,65,2014-10-01T22:25:00,0,28179974,190259
OK,65,41,688,65,2014-10-01T22:30:00,0,28180421,190259
OK,65,41,688,65,2014-10-01T22:35:00,0,28180819,190259
OK,65,41,688,65,2014-10-01T22:40:00,0,28181268,190259
OK,65,41,688,65,2014-10-01T22:45:00,0,28181692,190259
OK,65,41,688,65,2014-10-01T22:50:00,0,28182140,190259
OK,65,41,688,65,2014-10-01T22:55:00,0,28182587,190259
OK,65,41,688,65,2014-10-01T23:00:00,0,28183036,190259
OK,65,41,688,65,2014-10-01T23:05:00,0,28183453,190259
OK,65,41,688,65,2014-10-01T23:10:00,0,28183886,190259
OK,65,41,688,65,2014-10-01T23:15:00,0,28184331,190259
OK,65,41,688,65,2014-10-01T23:20:00,0,28184780,190259
OK,65,41,688,65,2014-10-01T23:25:00,0,28185215,190259
OK,65,41,688,65,2014-10-01T23:30:00,0,28185663,190259
OK,156,17,688,156,2014-10-01T23:40:00,2,28186486,190259
OK,156,17,688,156,2014-10-01T23:45:00,0,28187326,190259
OK,156,17,688,156,2014-10-01T23:55:00,0,28187775,190259
OK,156,17,688,156,2014-10-02T00:00:00,0,28188222,190259
OK,156,17,688,156,2014-10-02T00:10:00,0,28189101,190259
OK,156,17,688,156,2014-10-02T00:15:00,0,28189550,190259
OK,156,17,688,156,2014-10-02T00:20:00,0,28189972,190259
OK,156,17,688,156,2014-10-02T00:25:00,0,28190416,190259
OK,156,17,688,156,2014-10-02T00:30:00,0,28190774,190259
OK,156,17,688,156,2014-10-02T00:35:00,0,28191223,190259
OK,156,17,688,156,2014-10-02T00:45:00,0,28191978,190259
OK,156,17,688,156,2014-10-02T00:50:00,0,28192427,190259
OK,156,17,688,156,2014-10-02T00:55:00,0,28192860,190259
OK,156,17,688,156,2014-10-02T01:00:00,0,28193279,190259
OK,156,17,688,156,2014-10-02T01:05:00,0,28193671,190259
OK,156,17,688,156,2014-10-02T01:10:00,0,28194120,190259
OK,156,17,688,156,2014-10-02T01:15:00,0,28194569,190259
OK,156,17,688,156,2014-10-02T01:20:00,0,28195008,190259
OK,156,17,688,156,2014-10-02T01:25:00,0,28195254,190259
OK,156,17,688,156,2014-10-02T01:30:00,0,28195703,190259
OK,156,17,688,156,2014-10-02T01:35:00,0,28196152,190259
OK,156,17,688,156,2014-10-02T01:40:00,0,28196436,190259
OK,156,17,688,156,2014-10-02T01:45:00,0,28196885,190259
OK,156,17,688,156,2014-10-02T01:50:00,0,28197308,190259
OK,156,17,688,156,2014-10-02T01:55:00,0,28197757,190259
OK,156,17,688,156,2014-10-02T02:00:00,0,28198205,190259
OK,156,17,688,156,2014-10-02T02:05:00,0,28198653,190259
OK,156,17,688,156,2014-10-02T02:10:00,0,28199102,190259
OK,156,17,688,156,2014-10-02T02:15:00,0,28199474,190259
OK,156,17,688,156,2014-10-02T02:20:00,0,28199916,190259
OK,156,17,688,156,2014-10-02T02:25:00,0,28200358,190259
OK,156,17,688,156,2014-10-02T02:30:00,0,28200801,190259
OK,156,17,688,156,2014-10-02T02:35:00,0,28201250,190259
OK,156,17,688,156,2014-10-02T02:45:00,0,28201681,190259
OK,156,17,688,156,2014-10-02T02:50:00,0,28202130,190259
OK,156,17,688,156,2014-10-02T02:55:00,0,28202579,190259
OK,39,68,688,39,2014-10-02T03:00:00,1,28203021,190259
OK,39,68,688,39,2014-10-02T03:05:00,0,28203469,190259
OK,39,68,688,39,2014-10-02T03:15:00,0,28203904,190259
OK,47,57,688,47,2014-10-02T03:30:00,1,28204353,190259
OK,115,23,688,115,2014-10-02T03:35:00,2,28204802,190259
OK,162,16,688,162,2014-10-02T03:40:00,1,28205251,190259
OK,162,16,688,162,2014-10-02T03:45:00,0,28205679,190259
OK,162,16,688,162,2014-10-02T03:50:00,0,28206106,190259
OK,162,16,688,162,2014-10-02T03:55:00,0,28206509,190259
OK,62,43,688,62,2014-10-02T04:00:00,2,28206958,190259
OK,59,45,688,59,2014-10-02T04:05:00,1,28207407,190259
OK,56,47,688,56,2014-10-02T04:10:00,2,28207826,190259
OK,63,42,688,63,2014-10-02T04:15:00,0,28208275,190259
OK,52,51,688,52,2014-10-02T04:20:00,1,28208702,190259
OK,52,51,688,52,2014-10-02T04:25:00,0,28209151,190259
OK,86,31,688,86,2014-10-02T04:30:00,3,28209589,190259
OK,68,39,688,68,2014-10-02T04:35:00,2,28210038,190259
OK,50,53,688,50,2014-10-02T04:40:00,0,28210461,190259
OK,50,53,688,50,2014-10-02T04:45:00,0,28210910,190259
OK,50,53,688,50,2014-10-02T04:50:00,0,28211335,190259
OK,80,33,688,80,2014-10-02T04:55:00,5,28211779,190259
OK,84,31,688,84,2014-10-02T05:00:00,0,28212157,190259
OK,76,35,688,76,2014-10-02T05:05:00,6,28212606,190259
OK,82,32,688,82,2014-10-02T05:10:00,1,28213035,190259
OK,152,17,688,152,2014-10-02T05:15:00,5,28213484,190259
OK,206,13,688,206,2014-10-02T05:20:00,1,28213922,190259
OK,150,17,688,150,2014-10-02T05:25:00,4,28214371,190259
OK,83,32,688,83,2014-10-02T05:30:00,0,28214784,190259
OK,83,32,688,83,2014-10-02T05:35:00,0,28215233,190259
OK,231,11,688,231,2014-10-02T05:40:00,10,28215649,190259
OK,233,11,688,233,2014-10-02T05:45:00,5,28216098,190259
OK,361,7,688,361,2014-10-02T05:50:00,0,28216437,190259
OK,409,6,688,409,2014-10-02T05:55:00,10,28216877,190259
OK,383,7,688,383,2014-10-02T06:00:00,10,28217324,190259
OK,349,7,688,349,2014-10-02T06:05:00,7,28217773,190259
OK,549,4,688,549,2014-10-02T06:10:00,1,28218212,190259
OK,232,11,688,232,2014-10-02T06:15:00,6,28218661,190259
OK,275,9,688,275,2014-10-02T06:20:00,3,28219081,190259
OK,131,20,688,131,2014-10-02T06:25:00,2,28219530,190259
OK,151,17,688,151,2014-10-02T06:30:00,4,28219903,190259
OK,111,24,688,111,2014-10-02T06:35:00,10,28220352,190259
OK,104,25,688,104,2014-10-02T06:40:00,17,28220786,190259
OK,120,22,688,120,2014-10-02T06:45:00,13,28221235,190259
OK,164,16,688,164,2014-10-02T07:00:00,9,28221902,190259
OK,163,16,688,163,2014-10-02T07:05:00,5,28222047,190259
OK,201,13,688,201,2014-10-02T07:10:00,2,28222496,190259
OK,201,13,688,201,2014-10-02T07:15:00,2,28222945,190259
OK,194,13,688,194,2014-10-02T07:20:00,0,28223376,190259
OK,64,41,688,64,2014-10-02T07:25:00,1,28223811,190259
OK,74,36,688,74,2014-10-02T07:35:00,2,28224614,190259
OK,74,36,688,74,2014-10-02T07:40:00,2,28225063,190259
OK,89,30,688,89,2014-10-02T07:45:00,0,28225473,190259
OK,77,34,688,77,2014-10-02T07:50:00,3,28225834,190259
OK,114,23,688,114,2014-10-02T07:55:00,2,28226283,190259
OK,119,22,688,119,2014-10-02T08:00:00,1,28226724,190259
OK,121,22,688,121,2014-10-02T08:05:00,3,28227173,190259
OK,131,20,688,131,2014-10-02T08:10:00,0,28227588,190259
OK,130,20,688,130,2014-10-02T08:15:00,4,28228037,190259
OK,127,21,688,127,2014-10-02T08:20:00,0,28228396,190259
OK,87,30,688,87,2014-10-02T08:25:00,6,28228845,190259
OK,80,33,688,80,2014-10-02T08:30:00,3,28229255,190259
OK,48,55,688,48,2014-10-02T08:35:00,0,28229704,190259
OK,48,55,688,48,2014-10-02T08:40:00,0,28230054,190259
OK,48,55,688,48,2014-10-02T08:45:00,0,28230503,190259
OK,89,30,688,89,2014-10-02T08:50:00,5,28230869,190259
OK,84,31,688,84,2014-10-02T08:55:00,3,28231316,190259
OK,68,39,688,68,2014-10-02T09:00:00,2,28231741,190259
OK,57,47,688,57,2014-10-02T09:05:00,1,28232183,190259
OK,72,37,688,72,2014-10-02T09:15:00,4,28232532,190259
OK,58,46,688,58,2014-10-02T09:20:00,1,28232981,190259
OK,57,47,688,57,2014-10-02T09:25:00,0,28233430,190259
OK,57,47,688,57,2014-10-02T09:30:00,0,28233854,190259
OK,76,35,688,76,2014-10-02T09:40:00,0,28234636,190259
OK,73,36,688,73,2014-10-02T09:45:00,1,28235085,190259
OK,73,36,688,73,2014-10-02T09:50:00,0,28235512,190259
OK,72,37,688,72,2014-10-02T09:55:00,2,28235961,190259
OK,64,41,688,64,2014-10-02T10:00:00,1,28236404,190259
OK,64,41,688,64,2014-10-02T10:05:00,0,28236851,190259
OK,123,21,688,123,2014-10-02T10:10:00,4,28237253,190259
OK,76,35,688,76,2014-10-02T10:15:00,2,28237701,190259
OK,80,33,688,80,2014-10-02T10:20:00,4,28238150,190259
OK,63,42,688,63,2014-10-02T10:25:00,1,28238597,190259
OK,63,42,688,63,2014-10-02T10:30:00,0,28239038,190259
OK,123,21,688,123,2014-10-02T10:35:00,6,28239487,190259
OK,89,30,688,89,2014-10-02T10:40:00,4,28239917,190259
OK,62,43,688,62,2014-10-02T10:45:00,5,28240366,190259
OK,60,44,688,60,2014-10-02T10:50:00,3,28240810,190259
OK,115,23,688,115,2014-10-02T10:55:00,2,28241259,190259
OK,115,23,688,115,2014-10-02T11:00:00,2,28241691,190259
OK,101,26,688,101,2014-10-02T11:05:00,0,28242139,190259
OK,94,28,688,94,2014-10-02T11:10:00,4,28242535,190259
OK,86,31,688,86,2014-10-02T11:15:00,5,28242984,190259
OK,92,29,688,92,2014-10-02T11:20:00,7,28243433,190259
OK,93,28,688,93,2014-10-02T11:25:00,3,28243758,190259
OK,92,29,688,92,2014-10-02T11:30:00,0,28244196,190259
OK,67,40,688,67,2014-10-02T11:35:00,1,28244625,190259
OK,67,40,688,67,2014-10-02T11:40:00,0,28245074,190259
OK,67,40,688,67,2014-10-02T11:45:00,0,28245523,190259
OK,98,27,688,98,2014-10-02T11:50:00,5,28245929,190259
OK,96,27,688,96,2014-10-02T11:55:00,6,28246378,190259
OK,107,25,688,107,2014-10-02T12:00:00,4,28246815,190259
OK,107,25,688,107,2014-10-02T12:05:00,2,28247263,190259
OK,104,25,688,104,2014-10-02T12:10:00,0,28247710,190259
OK,101,26,688,101,2014-10-02T12:15:00,7,28248140,190259
OK,81,33,688,81,2014-10-02T12:20:00,1,28248589,190259
OK,86,31,688,86,2014-10-02T12:25:00,2,28249036,190259
OK,86,31,688,86,2014-10-02T12:30:00,0,28249464,190259
OK,91,29,688,91,2014-10-02T12:35:00,1,28249908,190259
OK,91,29,688,91,2014-10-02T12:40:00,0,28250292,190259
OK,160,16,688,160,2014-10-02T12:45:00,6,28250725,190259
OK,177,15,688,177,2014-10-02T13:20:00,3,28251585,190259
OK,291,9,688,291,2014-10-02T13:30:00,3,28252050,190259
OK,296,9,688,296,2014-10-02T13:35:00,2,28252187,190259
OK,296,9,688,296,2014-10-02T13:40:00,0,28252634,190259
OK,207,12,688,207,2014-10-02T13:45:00,5,28253076,190259
OK,195,13,688,195,2014-10-02T13:50:00,3,28253493,190259
OK,222,12,688,222,2014-10-02T13:55:00,6,28253942,190259
OK,113,23,688,113,2014-10-02T14:10:00,6,28254673,190259
OK,121,22,688,121,2014-10-02T14:15:00,3,28254796,190259
OK,221,12,688,221,2014-10-02T14:20:00,2,28255245,190259
OK,238,11,688,238,2014-10-02T14:25:00,0,28255694,190259
OK,249,10,688,249,2014-10-02T14:30:00,8,28256122,190259
OK,260,10,688,260,2014-10-02T14:35:00,5,28256571,190259
OK,254,10,688,254,2014-10-02T14:40:00,5,28256999,190259
OK,274,9,688,274,2014-10-02T14:45:00,3,28257448,190259
OK,375,7,688,375,2014-10-02T14:50:00,1,28257889,190259
OK,272,9,688,272,2014-10-02T14:55:00,3,28258337,190259
OK,272,9,688,272,2014-10-02T15:00:00,3,28258770,190259
OK,522,5,688,522,2014-10-02T15:05:00,1,28259216,190259
OK,275,9,688,275,2014-10-02T15:10:00,1,28259664,190259
OK,242,11,688,242,2014-10-02T15:15:00,4,28260112,190259
OK,205,13,688,205,2014-10-02T15:20:00,0,28260545,190259
OK,201,13,688,201,2014-10-02T15:25:00,2,28260993,190259
OK,303,8,688,303,2014-10-02T15:35:00,4,28261797,190259
OK,303,8,688,303,2014-10-02T15:40:00,4,28262246,190259
OK,232,11,688,232,2014-10-02T15:45:00,4,28262693,190259